Погода в Нейплсе

США     26°08′53″N   81°47′25″W
темп.,
°C
ветер,
м/с
пор.,
м/с
влажн.,
%
обл.,
%
осадки,
мм/ч
давл.,
гПа
погр.,
м
31 июля, сб
сб3123:00+28з23715 0.0 1018172
02:00+28юз227343 0.0 1018132
05:00+27ю227613 0.0 1017143
08:00+28ююв227566 0.0 1018241
11:00+31юз335825 0.1 10191456
14:00+33зюз545625 0.1 10181381
17:00+31з5461100 0.0 10171044
20:00+30з346729 0.0 1017551
1 августа, вс
вс123:00+29зюз226990 0.0 1018157
02:00+28ююз11729 0.1 1018145
05:00+27юв227635 0.0 1017154
08:00+27вюв237947 0.0 1018151
11:00+31ю235748 0.0 10191309
14:00+32зюз545680 0.0 10181144
17:00+32зюз535780 0.0 10171108
20:00+30ююз346731 1.3 1018378
2 августа, пн
пн223:00+25ююв127486 1.9 101892
02:00+26юв237054 1.9 101777
05:00+25вюв22757 0.0 101763
08:00+26в22785 0.0 101898
11:00+31ю336424 0.8 10181013
14:00+32ююз446149 4.3 10171115
17:00+32зюз546172 1.6 10161173
20:00+29зюз337486 3.6 1016253
3 августа, вт
вт323:00+27вюв3480100 2.4 1017167
02:00+27ю2479100 2.4 1016225
05:00+27юв237884 0.0 1015201
08:00+27вюв227756 0.1 1016204
11:00+31ююз3360100 1.9 10171187
14:00+32юз545799 2.7 10161454
17:00+31зюз5463100 0.1 10151157
20:00+29з2369100 0.2 1016385
4 августа, ср
ср423:00+25в3482100 1.5 1017120
02:00+26юв238194 1.5 101592
05:00+25вюв3587100 0.6 1014150
08:00+25юв368799 4.9 1016250
11:00+29ю4671100 8.6 1017449
14:00+31ююз4563100 10.6 10161128
17:00+31ююз5663100 1.9 10151111
20:00+28ююз3572100 6.1 1016231